カタログに戻る

CENTISPACE-1 S1

運用中ナビゲーションSSO
NORAD 43636·PAYLOAD·🇨🇳 China

打ち上げ Sep 29, 2018 から Jiuquan Satellite Launch Center

Loading…

次のパス (今後24時間)

TLE

最新Source: Space-Track

元期: Sep 14, 2026, 13:03 UTC

1 43636U 18075A   26257.54380237  .00000239  00000-0  58815-4 0  9992
2 43636  97.8708 276.8345 0008205 190.4742 169.6290 14.60068519423596

AllMySatでCENTISPACE-1 S1をリアルタイム追跡

Download on the App Store